Regional Weather Roundup
Issued by NWS

Home | Current Version | Previous Version | Graphics & Text | Print | Product List | Glossary On
Versions: 1 2 3 4 5 6 7 8 9 10 11 12 13 14 15 16 17 18 19 20 21 22 23 24 25 26 27
000
ASUS45 KBOU 230307
RWRCO

WEATHER ROUNDUP FOR COLORADO
NATIONAL WEATHER SERVICE DENVER/BOULDER CO
900 PM MDT SUN OCT 22 2017

NOTE: "FAIR" INDICATES FEW OR NO CLOUDS BELOW 12000 FEET WITH NO
SIGNIFICANT WEATHER AND/OR OBSTRUCTIONS TO VISIBILITY.

COZ001>005-013-030-031-230400-
...NORTHWEST COLORADO...

CITY           SKY/WX    TMP DP  RH WIND       PRES   REMARKS
CRAIG          MOCLDY    45  28  51 NW8       30.37R
HAYDEN         MOCLDY    50  25  37 VRB3      30.39R
MEEKER         FAIR      49  26  41 NW6       30.40R
RABBIT EARS PA CLOUDY    32  28  86 W14G24    30.47F WCI  22
STEAMBOAT SPGS CLOUDY    45  31  59 CALM      30.38R
WALDEN         NOT AVBL
$$

COZ006>008-011-230400-
...WEST CENTRAL VALLEYS...

CITY           SKY/WX    TMP DP  RH WIND       PRES   REMARKS
GRAND JUNCTION FAIR      49  19  30 CALM      30.39R
MONTROSE       FAIR      44  26  49 SE6       30.44R
EAGLE          FAIR      42  28  57 E9        30.44R
RIFLE          FAIR      45  31  58 S5        30.40R
DELTA          FAIR      51  19  28 E3        30.41R
NUCLA          FAIR      48  19  32 E12       30.47R
$$

COZ017>023-064>068-230400-
...SOUTHWEST COLORADO...

CITY           SKY/WX    TMP DP  RH WIND       PRES   REMARKS
DURANGO        FAIR      46  21  37 E5        30.41R
CORTEZ         FAIR      40  21  46 NE9       30.44R
PAGOSA SPRINGS FAIR      42  17  36 NE3       30.47R
TELLURIDE      FAIR      42  17  35 SE3       30.59S
WOLF CREEK PAS FAIR      32  16  51 SW10      30.67S WCI  24
$$

COZ009-010-012-014-032>034-037-058>063-230400-
...CENTRAL COLORADO...

CITY           SKY/WX    TMP DP  RH WIND       PRES   REMARKS
ASPEN          FAIR      36  29  75 SW9       30.47S
BUENA VISTA    FAIR      49  18  28 W9G18     30.37S
COPPER MTN     FAIR      32  23  69 W7        30.57R WCI  26
BERTHOUD PASS  CLOUDY    30  21  69 NW36G54   30.51R WCI  14
COTTONWOOD PAS FAIR      50  18  27 W17G35    30.42S
GUNNISON       FAIR      39  19  44 CALM      30.47R
KREMMLING      CLOUDY    50  27  40 W5        30.41F
LEADVILLE      FAIR      38  16  40 NE13G20   30.48S
MONARCH PASS   FAIR      32  14  47 W46G52    30.64F WCI  15
SALIDA         FAIR      56  15  20 W13G28    30.42R
SUNLIGHT       FAIR      32  21  64 SW14G25   30.59S WCI  22
WILKERSON PASS FAIR      39  18  41 NW15G33   30.48S
$$

COZ069>075-230400-
...SAN LUIS VALLEY/SANGRE DE CRISTO MOUNTAINS...

CITY           SKY/WX    TMP DP  RH WIND       PRES   REMARKS
ALAMOSA        FAIR      37  19  48 W8        30.40R
DEL NORTE      FAIR      40  19  41 SW7       30.43R
LA VETA PASS   FAIR      41  19  42 S22G37    30.58S
SAGUACHE       FAIR      45  16  31 CALM      30.43S
$$

COZ035-036-038>040-230400-
...NORTHERN COLORADO FRONT RANGE...

CITY           SKY/WX    TMP DP  RH WIND       PRES   REMARKS
DENVER INTL AP MOCLDY    62  24  23 W10       30.13R
DMNS CITY PARK   N/A     60  24  24 S3G12     30.13R
AURORA         MOCLDY    60  25  26 W9        30.15S
FRONT RANGE AP MOCLDY    57  25  28 W9        30.15S
ERIE MUNI ARPT FAIR      54  25  32 W5        30.17R
BOULDER MUN AP FAIR      61  27  27 N3        30.11S
CENTENNIAL     MOCLDY    55  23  28 E5        30.15F
BROOMFIELD     MOCLDY    66  25  20 SW25G40   30.15R
FORT COLLINS   FAIR      59  27  29 E7        30.09S
LONGMONT       FAIR      65  25  22 W12G24    30.11S
$$

COZ041-046-047-076>085-087-088-230400-
...PIKES PEAK/PALMER DIVIDE AND SOUTHERN FOOTHILLS...

CITY           SKY/WX    TMP DP  RH WIND       PRES   REMARKS
COLO. SPRINGS  FAIR      49  27  42 NE8       30.20F
A. F. ACADEMY  FAIR      55  22  27 E3        30.20F
SCHRIEVER AFB  FAIR      51  24  34 N6        30.21R
CHEYENNE MTN   FAIR      56  22  26 S5        30.18S
ELLICOTT         N/A    N/A N/A N/A CALM      30.19S
FALCON         FAIR      44  24  44 NW6       30.24S
FORT CARSON    FAIR      47  28  46 N3        30.17S
LIMON          FAIR      36  28  73 N5        30.15S
MONUMENT HILL  FAIR      43  23  45 S5        30.25S
CANON CITY     FAIR      64  27  24 MISG      30.19R
WALSENBURG     FAIR      63  18  17 W23G30    30.21S
TRINIDAD       FAIR      51  31  46 NW6       30.18S
$$

COZ042>045-048>051-090-091-230400-
...NORTHEAST COLORADO...

CITY           SKY/WX    TMP DP  RH WIND       PRES   REMARKS
GREELEY ARPT   FAIR      51  32  48 E7        30.10R
AKRON          FAIR      53  24  32 SW7       30.09R
BURLINGTON     FAIR      47  25  42 SW9       30.09R
WRAY           NOT AVBL
YUMA           FAIR      45  30  57 SW6       30.07R
STERLING       NOT AVBL
HOLYOKE        FAIR      46  32  57 W7        30.05R
FORT MORGAN    FAIR      52  23  32 W5        30.09S
$$

COZ086-089-092>099-230400-
...SOUTHEAST COLORADO...

CITY           SKY/WX    TMP DP  RH WIND       PRES   REMARKS
PUEBLO         FAIR      59  25  27 CALM      30.11R
LA JUNTA       FAIR      59  26  28 CALM      30.09S
LAMAR          FAIR      47  27  45 S5        30.06R
SPRINGFIELD      N/A     51  31  46 SW8       30.11S
$$




USA.gov is the U.S. government's official web portal to all federal, state and local government web resources and services.